| time (UTC) | temp C | wind direction | speed KPH | gust KPH | rain 1hr cm | rain 24hr cm | rain mn cm | humidity % | barometer mb |
| 20260508222538 | 11 | 14 | 4.8 | 9.7 | 0.00 | 0.00 | 0.00 | ||
| 20260508222136 | 11 | 5 | 4.8 | 8.0 | 0.00 | 0.00 | 0.00 | ||
| 20260508221735 | 11 | 2 | 3.2 | 8.0 | 0.00 | 0.00 | 0.00 | ||
| 20260508220931 | 12 | 1 | 4.8 | 11.3 | 0.00 | 0.00 | 0.00 | ||
| 20260508220523 | 12 | 0 | 1.6 | 6.4 | 0.00 | 0.00 | 0.00 | ||
| 20260508220121 | 12 | 0 | 0.0 | 3.2 | 0.00 | 0.00 | 0.00 | ||
| 20260508215720 | 12 | 0 | 1.6 | 3.2 | 0.00 | 0.00 | 0.00 | ||
| 20260508215319 | 12 | 0 | 1.6 | 4.8 | 0.00 | 0.00 | 0.00 | ||
| 20260508214916 | 12 | 0 | 0.0 | 3.2 | 0.00 | 0.00 | 0.00 | ||
| 20260508214515 | 12 | 0 | 0.0 | 1.6 | 0.00 | 0.00 | 0.00 | ||
| 20260508214114 | 12 | 0 | 0.0 | 3.2 | 0.00 | 0.00 | 0.00 | ||
| 20260508213713 | 12 | 0 | 0.0 | 0.0 | 0.00 | 0.00 | 0.00 | ||
| 20260508213310 | 12 | 0 | 0.0 | 0.0 | 0.00 | 0.00 | 0.00 | ||
| 20260508212909 | 12 | 0 | 0.0 | 1.6 | 0.00 | 0.00 | 0.00 | ||
| 20260508212501 | 12 | 0 | 1.6 | 4.8 | 0.00 | 0.00 | 0.00 | ||
| 20260508212059 | 12 | 2 | 3.2 | 6.4 | 0.00 | 0.00 | 0.00 | ||
| 20260508211657 | 12 | 21 | 3.2 | 4.8 | 0.00 | 0.00 | 0.00 | ||
| 20260508211256 | 12 | 21 | 3.2 | 4.8 | 0.00 | 0.00 | 0.00 | ||
| 20260508210854 | 12 | 21 | 1.6 | 4.8 | 0.00 | 0.00 | 0.00 | ||
| 20260508210453 | 12 | 21 | 1.6 | 3.2 | 0.00 | 0.00 | 0.00 | ||
| 20260508210050 | 12 | 21 | 3.2 | 4.8 | 0.00 | 0.00 | 0.00 | ||
| 20260508205248 | 12 | 21 | 1.6 | 3.2 | 0.00 | 0.00 | 0.00 | ||
| 20260508204846 | 12 | 21 | 3.2 | 3.2 | 0.00 | 0.00 | 0.00 | ||
| 20260508204438 | 12 | 34 | 4.8 | 6.4 | 0.00 | 0.00 | 0.00 | ||
| 20260508204035 | 12 | 45 | 3.2 | 6.4 | 0.00 | 0.00 | 0.00 | ||
| 20260508203634 | 12 | 45 | 3.2 | 8.0 | 0.00 | 0.00 | 0.00 | ||
| 20260508203233 | 12 | 45 | 1.6 | 4.8 | 0.00 | 0.00 | 0.00 | ||
| 20260508202831 | 12 | 45 | 1.6 | 3.2 | 0.00 | 0.00 | 0.00 | ||
| 20260508202429 | 12 | 45 | 1.6 | 4.8 | 0.00 | 0.00 | 0.00 | ||
| 20260508202027 | 12 | 45 | 1.6 | 3.2 | 0.00 | 0.00 | 0.00 | ||
| 20260508201626 | 12 | 45 | 1.6 | 3.2 | 0.00 | 0.00 | 0.00 | ||
| 20260508201225 | 12 | 45 | 0.0 | 1.6 | 0.00 | 0.00 | 0.00 | ||
| 20260508200822 | 12 | 45 | 0.0 | 0.0 | 0.00 | 0.00 | 0.00 | ||
| 20260508200414 | 12 | 45 | 1.6 | 3.2 | 0.00 | 0.00 | 0.00 | ||
| 20260508200012 | 12 | 45 | 0.0 | 0.0 | 0.00 | 0.00 | 0.00 | ||
| 20260508195611 | 12 | 45 | 3.2 | 6.4 | 0.00 | 0.00 | 0.00 | ||
| 20260508195209 | 12 | 45 | 0.0 | 0.0 | 0.00 | 0.00 | 0.00 | ||
| 20260508194807 | 12 | 45 | 0.0 | 0.0 | 0.00 | 0.00 | 0.00 | ||
| 20260508194406 | 12 | 45 | 0.0 | 3.2 | 0.00 | 0.00 | 0.00 | ||
| 20260508194004 | 12 | 45 | 1.6 | 4.8 | 0.00 | 0.00 | 0.00 | ||
| 20260508193603 | 12 | 45 | 3.2 | 6.4 | 0.00 | 0.00 | 0.00 | ||
| 20260508192759 | 12 | 45 | 1.6 | 6.4 | 0.00 | 0.00 | 0.00 | ||
| 20260508192351 | 12 | 45 | 1.6 | 4.8 | 0.00 | 0.00 | 0.00 | ||
| 20260508191949 | 12 | 31 | 3.2 | 8.0 | 0.00 | 0.00 | 0.00 | ||
| 20260508191146 | 12 | 21 | 4.8 | 8.0 | 0.00 | 0.00 | 0.00 | ||
| 20260508190744 | 12 | 14 | 4.8 | 6.4 | 0.00 | 0.00 | 0.00 | ||
| 20260508190343 | 12 | 0 | 3.2 | 8.0 | 0.00 | 0.00 | 0.00 | ||
| 20260508185940 | 12 | 0 | 1.6 | 6.4 | 0.00 | 0.00 | 0.00 | ||
| 20260508185539 | 12 | 0 | 3.2 | 6.4 | 0.00 | 0.00 | 0.00 | ||
| 20260508185138 | 12 | 14 | 1.6 | 6.4 | 0.00 | 0.00 | 0.00 | ||
| 20260508184736 | 12 | 13 | 3.2 | 6.4 | 0.00 | 0.00 | 0.00 | ||
| 20260508184327 | 12 | 10 | 3.2 | 6.4 | 0.00 | 0.00 | 0.00 | ||
| 20260508183925 | 12 | 0 | 0.0 | 0.0 | 0.00 | 0.00 | 0.00 | ||
| 20260508183524 | 12 | 0 | 3.2 | 6.4 | 0.00 | 0.00 | 0.00 | ||
| 20260508183123 | 12 | 21 | 1.6 | 4.8 | 0.00 | 0.00 | 0.00 | ||
| 20260508182721 | 12 | 21 | 1.6 | 4.8 | 0.00 | 0.00 | 0.00 | ||
| 20260508182319 | 12 | 41 | 6.4 | 9.7 | 0.00 | 0.00 | 0.00 | ||
| 20260508181917 | 12 | 45 | 1.6 | 4.8 | 0.00 | 0.00 | 0.00 | ||
| 20260508181516 | 12 | 45 | 0.0 | 0.0 | 0.00 | 0.00 | 0.00 | ||
| 20260508181115 | 12 | 45 | 1.6 | 6.4 | 0.00 | 0.00 | 0.00 | ||
| 20260508180712 | 12 | 45 | 1.6 | 6.4 | 0.00 | 0.00 | 0.00 | ||
| 20260508180304 | 13 | 45 | 3.2 | 6.4 | 0.00 | 0.00 | 0.00 | ||
| 20260508175902 | 13 | 45 | 4.8 | 6.4 | 0.00 | 0.00 | 0.00 | ||
| 20260508175501 | 13 | 67 | 1.6 | 6.4 | 0.00 | 0.00 | 0.00 | ||
| 20260508175059 | 12 | 67 | 3.2 | 6.4 | 0.00 | 0.00 | 0.00 | ||
| 20260508174658 | 12 | 67 | 3.2 | 8.0 | 0.00 | 0.00 | 0.00 | ||
| 20260508174257 | 13 | 67 | 3.2 | 6.4 | 0.00 | 0.00 | 0.00 | ||
| 20260508173855 | 13 | 64 | 1.6 | 4.8 | 0.00 | 0.00 | 0.00 | ||
| 20260508173453 | 13 | 45 | 6.4 | 9.7 | 0.00 | 0.00 | 0.00 | ||
| 20260508173052 | 13 | 45 | 4.8 | 9.7 | 0.00 | 0.00 | 0.00 | ||
| 20260508172650 | 13 | 45 | 3.2 | 8.0 | 0.00 | 0.00 | 0.00 | ||
| 20260508172242 | 13 | 45 | 3.2 | 8.0 | 0.00 | 0.00 | 0.00 | ||
| 20260508171840 | 13 | 45 | 8.0 | 11.3 | 0.00 | 0.00 | 0.00 | ||
| 20260508171438 | 13 | 45 | 3.2 | 4.8 | 0.00 | 0.00 | 0.00 | ||
| 20260508171037 | 13 | 45 | 1.6 | 3.2 | 0.00 | 0.00 | 0.00 | ||
| 20260508170635 | 13 | 45 | 4.8 | 8.0 | 0.00 | 0.00 | 0.00 | ||
| 20260508170234 | 13 | 18 | 3.2 | 8.0 | 0.00 | 0.00 | 0.00 | ||
| 20260508165831 | 13 | 18 | 6.4 | 9.7 | 0.00 | 0.00 | 0.00 | ||
| 20260508165430 | 13 | 16 | 6.4 | 12.9 | 0.00 | 0.00 | 0.00 | ||
| 20260508165029 | 13 | 24 | 8.0 | 11.3 | 0.00 | 0.00 | 0.00 | ||
| 20260508164627 | 13 | 13 | 4.8 | 11.3 | 0.00 | 0.00 | 0.00 | ||
| 20260508164218 | 13 | 41 | 3.2 | 8.0 | 0.00 | 0.00 | 0.00 | ||
| 20260508163816 | 13 | 12 | 4.8 | 14.5 | 0.00 | 0.00 | 0.00 | ||
| 20260508163415 | 13 | 19 | 9.7 | 14.5 | 0.00 | 0.00 | 0.00 | ||
| 20260508163014 | 13 | 19 | 9.7 | 16.1 | 0.00 | 0.00 | 0.00 | ||
| 20260508162610 | 13 | 1 | 8.0 | 12.9 | 0.00 | 0.00 | 0.00 | ||
| 20260508162209 | 14 | 3 | 6.4 | 12.9 | 0.00 | 0.00 | 0.00 | ||
| 20260508161806 | 14 | 8 | 4.8 | 11.3 | 0.00 | 0.00 | 0.00 | ||
| 20260508161405 | 14 | 350 | 4.8 | 8.0 | 0.00 | 0.00 | 0.00 | ||
| 20260508161004 | 14 | 2 | 4.8 | 11.3 | 0.00 | 0.00 | 0.00 | ||
| 20260508160601 | 14 | 343 | 6.4 | 11.3 | 0.00 | 0.00 | 0.00 | ||
| 20260508160153 | 14 | 14 | 3.2 | 11.3 | 0.00 | 0.00 | 0.00 | ||
| 20260508155752 | 14 | 21 | 4.8 | 9.7 | 0.00 | 0.00 | 0.00 | ||
| 20260508155351 | 14 | 24 | 6.4 | 12.9 | 0.00 | 0.00 | 0.00 | ||
| 20260508154948 | 13 | 28 | 8.0 | 12.9 | 0.00 | 0.00 | 0.00 | ||
| 20260508154547 | 14 | 16 | 6.4 | 14.5 | 0.00 | 0.00 | 0.00 | ||
| 20260508154146 | 14 | 25 | 8.0 | 12.9 | 0.00 | 0.00 | 0.00 | ||
| 20260508153744 | 14 | 24 | 8.0 | 14.5 | 0.00 | 0.00 | 0.00 | ||
| 20260508153342 | 14 | 30 | 4.8 | 9.7 | 0.00 | 0.00 | 0.00 | ||
| 20260508152539 | 15 | 30 | 8.0 | 16.1 | 0.00 | 0.00 | 0.00 | ||
| 20260508152131 | 15 | 24 | 8.0 | 17.7 | 0.00 | 0.00 | 0.00 | ||
| 20260508151728 | 15 | 36 | 4.8 | 9.7 | 0.00 | 0.00 | 0.00 | ||
| 20260508151327 | 15 | 32 | 8.0 | 12.9 | 0.00 | 0.00 | 0.00 | ||
| 20260508150926 | 15 | 30 | 9.7 | 16.1 | 0.00 | 0.00 | 0.00 | ||
| 20260508150524 | 15 | 24 | 8.0 | 14.5 | 0.00 | 0.00 | 0.00 | ||
| 20260508150123 | 15 | 1 | 8.0 | 11.3 | 0.00 | 0.00 | 0.00 | ||
| 20260508145720 | 15 | 29 | 8.0 | 16.1 | 0.00 | 0.00 | 0.00 | ||
| 20260508145319 | 15 | 21 | 11.3 | 14.5 | 0.00 | 0.00 | 0.00 | ||
| 20260508144918 | 16 | 16 | 6.4 | 11.3 | 0.00 | 0.00 | 0.00 | ||
| 20260508144516 | 16 | 341 | 6.4 | 14.5 | 0.00 | 0.00 | 0.00 | ||
| 20260508144107 | 15 | 0 | 8.0 | 12.9 | 0.00 | 0.00 | 0.00 | ||
| 20260508143705 | 16 | 354 | 6.4 | 8.0 | 0.00 | 0.00 | 0.00 | ||
| 20260508143304 | 16 | 343 | 6.4 | 12.9 | 0.00 | 0.00 | 0.00 | ||
| 20260508142903 | 15 | 359 | 6.4 | 14.5 | 0.00 | 0.00 | 0.00 | ||
| 20260508142500 | 15 | 338 | 6.4 | 14.5 | 0.00 | 0.00 | 0.00 | ||
| 20260508142100 | 15 | 326 | 8.0 | 14.5 | 0.00 | 0.00 | 0.00 | ||
| 20260508141658 | 15 | 356 | 3.2 | 6.4 | 0.00 | 0.00 | 0.00 | ||
| 20260508141257 | 15 | 348 | 4.8 | 8.0 | 0.00 | 0.00 | 0.00 | ||
| 20260508140855 | 15 | 339 | 3.2 | 6.4 | 0.00 | 0.00 | 0.00 | ||
| 20260508140453 | 15 | 312 | 4.8 | 8.0 | 0.00 | 0.00 | 0.00 | ||
| 20260508140045 | 15 | 0 | 4.8 | 8.0 | 0.00 | 0.00 | 0.00 | ||
| 20260508135643 | 16 | 338 | 3.2 | 6.4 | 0.00 | 0.00 | 0.00 | ||
| 20260508135242 | 16 | 329 | 3.2 | 6.4 | 0.00 | 0.00 | 0.00 | ||
| 20260508134840 | 16 | 347 | 3.2 | 6.4 | 0.00 | 0.00 | 0.00 | ||
| 20260508134438 | 16 | 8 | 6.4 | 12.9 | 0.00 | 0.00 | 0.00 | ||
| 20260508134037 | 16 | 351 | 6.4 | 12.9 | 0.00 | 0.00 | 0.00 | ||
| 20260508133635 | 16 | 7 | 4.8 | 9.7 | 0.00 | 0.00 | 0.00 | ||
| 20260508133233 | 16 | 4 | 6.4 | 9.7 | 0.00 | 0.00 | 0.00 | ||
| 20260508132832 | 16 | 4 | 3.2 | 8.0 | 0.00 | 0.00 | 0.00 | ||
| 20260508132430 | 16 | 340 | 3.2 | 6.4 | 0.00 | 0.00 | 0.00 | ||
| 20260508132022 | 15 | 8 | 4.8 | 9.7 | 0.00 | 0.00 | 0.00 | ||
| 20260508131619 | 15 | 354 | 1.6 | 4.8 | 0.00 | 0.00 | 0.00 | ||
| 20260508131218 | 16 | 338 | 0.0 | 3.2 | 0.00 | 0.00 | 0.00 | ||
| 20260508130817 | 15 | 338 | 1.6 | 3.2 | 0.00 | 0.00 | 0.00 | ||
| 20260508130415 | 15 | 332 | 3.2 | 6.4 | 0.00 | 0.00 | 0.00 | ||
| 20260508130013 | 15 | 353 | 3.2 | 8.0 | 0.00 | 0.00 | 0.00 | ||
| 20260508125611 | 15 | 352 | 4.8 | 6.4 | 0.00 | 0.00 | 0.00 | ||
| 20260508125210 | 15 | 339 | 3.2 | 6.4 | 0.00 | 0.00 | 0.00 | ||
| 20260508124809 | 15 | 323 | 3.2 | 9.7 | 0.00 | 0.00 | 0.00 | ||
| 20260508124407 | 15 | 293 | 3.2 | 9.7 | 0.00 | 0.00 | 0.00 | ||
| 20260508123958 | 15 | 340 | 1.6 | 8.0 | 0.00 | 0.00 | 0.00 | ||
| 20260508123556 | 15 | 0 | 1.6 | 4.8 | 0.00 | 0.00 | 0.00 | ||
| 20260508123155 | 13 | 0 | 3.2 | 6.4 | 0.00 | 0.00 | 0.00 | ||
| 20260508122754 | 13 | 344 | 3.2 | 8.0 | 0.00 | 0.00 | 0.00 | ||
| 20260508122351 | 15 | 3 | 3.2 | 8.0 | 0.00 | 0.00 | 0.00 | ||
| 20260508121950 | 14 | 353 | 3.2 | 9.7 | 0.00 | 0.00 | 0.00 | ||
| 20260508121548 | 13 | 292 | 3.2 | 6.4 | 0.00 | 0.00 | 0.00 | ||
| 20260508121147 | 14 | 292 | 3.2 | 6.4 | 0.00 | 0.00 | 0.00 | ||
| 20260508120342 | 13 | 319 | 3.2 | 6.4 | 0.00 | 0.00 | 0.00 | ||
| 20260508115935 | 13 | 338 | 3.2 | 6.4 | 0.00 | 0.00 | 0.00 | ||
| 20260508115532 | 13 | 295 | 3.2 | 6.4 | 0.00 | 0.00 | 0.00 | ||
| 20260508115130 | 13 | 303 | 6.4 | 9.7 | 0.00 | 0.00 | 0.00 | ||
| 20260508114729 | 13 | 333 | 4.8 | 9.7 | 0.00 | 0.00 | 0.00 | ||
| 20260508114327 | 13 | 338 | 3.2 | 6.4 | 0.00 | 0.00 | 0.00 | ||
| 20260508113926 | 13 | 315 | 3.2 | 6.4 | 0.00 | 0.00 | 0.00 | ||
| 20260508113524 | 13 | 318 | 3.2 | 6.4 | 0.00 | 0.00 | 0.00 | ||
| 20260508113122 | 13 | 334 | 4.8 | 8.0 | 0.00 | 0.00 | 0.00 | ||
| 20260508112721 | 13 | 331 | 4.8 | 11.3 | 0.00 | 0.00 | 0.00 | ||
| 20260508112319 | 13 | 309 | 4.8 | 9.7 | 0.00 | 0.00 | 0.00 | ||
| 20260508111508 | 13 | 303 | 6.4 | 11.3 | 0.00 | 0.00 | 0.00 | ||
| 20260508111107 | 13 | 333 | 6.4 | 9.7 | 0.00 | 0.00 | 0.00 | ||
| 20260508110706 | 13 | 315 | 4.8 | 9.7 | 0.00 | 0.00 | 0.00 | ||
| 20260508110304 | 13 | 328 | 1.6 | 9.7 | 0.00 | 0.00 | 0.00 | ||
| 20260508105902 | 13 | 338 | 3.2 | 4.8 | 0.00 | 0.00 | 0.00 | ||
| 20260508105500 | 13 | 338 | 1.6 | 3.2 | 0.00 | 0.00 | 0.00 | ||
| 20260508105059 | 13 | 335 | 3.2 | 6.4 | 0.00 | 0.00 | 0.00 | ||
| 20260508104658 | 13 | 327 | 6.4 | 9.7 | 0.00 | 0.00 | 0.00 | ||
| 20260508104255 | 13 | 342 | 1.6 | 4.8 | 0.00 | 0.00 | 0.00 | ||
| 20260508103847 | 13 | 351 | 3.2 | 8.0 | 0.00 | 0.00 | 0.00 | ||
| 20260508103445 | 14 | 296 | 1.6 | 4.8 | 0.00 | 0.00 | 0.00 | ||
| 20260508102644 | 13 | 333 | 3.2 | 8.0 | 0.00 | 0.00 | 0.00 | ||
| 20260508102241 | 13 | 307 | 4.8 | 8.0 | 0.00 | 0.00 | 0.00 | ||
| 20260508101840 | 13 | 346 | 4.8 | 8.0 | 0.00 | 0.00 | 0.00 | ||
| 20260508101438 | 12 | 338 | 3.2 | 6.4 | 0.00 | 0.00 | 0.00 | ||
| 20260508101037 | 12 | 332 | 3.2 | 8.0 | 0.00 | 0.00 | 0.00 | ||
| 20260508100635 | 12 | 292 | 4.8 | 6.4 | 0.00 | 0.00 | 0.00 | ||
| 20260508100233 | 12 | 306 | 4.8 | 9.7 | 0.00 | 0.00 | 0.00 | ||
| 20260508095825 | 13 | 292 | 4.8 | 9.7 | 0.00 | 0.00 | 0.00 | ||
| 20260508095423 | 12 | 296 | 4.8 | 8.0 | 0.00 | 0.00 | 0.00 | ||
| 20260508095021 | 12 | 315 | 1.6 | 3.2 | 0.00 | 0.00 | 0.00 | ||
| 20260508094619 | 12 | 315 | 3.2 | 6.4 | 0.00 | 0.00 | 0.00 | ||
| 20260508094218 | 12 | 338 | 0.0 | 3.2 | 0.00 | 0.00 | 0.00 | ||
| 20260508093817 | 12 | 306 | 4.8 | 8.0 | 0.00 | 0.00 | 0.00 | ||
| 20260508093414 | 12 | 323 | 4.8 | 9.7 | 0.00 | 0.00 | 0.00 | ||
| 20260508093013 | 13 | 353 | 1.6 | 8.0 | 0.00 | 0.00 | 0.00 | ||
| 20260508092612 | 12 | 353 | 3.2 | 9.7 | 0.00 | 0.00 | 0.00 | ||
| 20260508092210 | 11 | 335 | 3.2 | 9.7 | 0.00 | 0.00 | 0.00 | ||
| 20260508091802 | 11 | 335 | 6.4 | 11.3 | 0.00 | 0.00 | 0.00 | ||
| 20260508091359 | 11 | 352 | 1.6 | 6.4 | 0.00 | 0.00 | 0.00 | ||
| 20260508090958 | 11 | 338 | 3.2 | 4.8 | 0.00 | 0.00 | 0.00 | ||
| 20260508090557 | 11 | 338 | 4.8 | 8.0 | 0.00 | 0.00 | 0.00 | ||
| 20260508090155 | 12 | 338 | 1.6 | 4.8 | 0.00 | 0.00 | 0.00 | ||
| 20260508085753 | 11 | 351 | 1.6 | 4.8 | 0.00 | 0.00 | 0.00 | ||
| 20260508085351 | 11 | 325 | 3.2 | 9.7 | 0.00 | 0.00 | 0.00 | ||
| 20260508084950 | 12 | 315 | 3.2 | 8.0 | 0.00 | 0.00 | 0.00 | ||
| 20260508084549 | 11 | 315 | 4.8 | 8.0 | 0.00 | 0.00 | 0.00 | ||
| 20260508084146 | 11 | 338 | 3.2 | 8.0 | 0.00 | 0.00 | 0.00 | ||
| 20260508083738 | 11 | 339 | 6.4 | 9.7 | 0.00 | 0.00 | 0.00 | ||
| 20260508083336 | 11 | 319 | 3.2 | 6.4 | 0.00 | 0.00 | 0.00 | ||
| 20260508082935 | 11 | 313 | 3.2 | 9.7 | 0.00 | 0.00 | 0.00 | ||
| 20260508082533 | 11 | 315 | 4.8 | 9.7 | 0.00 | 0.00 | 0.00 | ||
| 20260508082131 | 11 | 303 | 3.2 | 6.4 | 0.00 | 0.00 | 0.00 | ||
| 20260508081730 | 12 | 293 | 1.6 | 8.0 | 0.00 | 0.00 | 0.00 | ||
| 20260508081328 | 11 | 303 | 4.8 | 9.7 | 0.00 | 0.00 | 0.00 | ||
| 20260508080927 | 11 | 292 | 4.8 | 14.5 | 0.00 | 0.00 | 0.00 | ||
| 20260508080525 | 11 | 292 | 4.8 | 8.0 | 0.00 | 0.00 | 0.00 | ||
| 20260508080123 | 11 | 325 | 4.8 | 9.7 | 0.00 | 0.00 | 0.00 | ||
| 20260508075715 | 11 | 338 | 3.2 | 6.4 | 0.00 | 0.00 | 0.00 | ||
| 20260508075314 | 11 | 331 | 1.6 | 6.4 | 0.00 | 0.00 | 0.00 | ||
| 20260508074911 | 11 | 317 | 3.2 | 6.4 | 0.00 | 0.00 | 0.00 | ||
| 20260508074510 | 11 | 338 | 1.6 | 6.4 | 0.00 | 0.00 | 0.00 | ||
| 20260508074109 | 11 | 325 | 4.8 | 6.4 | 0.00 | 0.00 | 0.00 | ||
| 20260508073708 | 11 | 315 | 4.8 | 6.4 | 0.00 | 0.00 | 0.00 | ||
| 20260508073305 | 11 | 320 | 3.2 | 8.0 | 0.00 | 0.00 | 0.00 | ||
| 20260508072904 | 11 | 321 | 3.2 | 8.0 | 0.00 | 0.00 | 0.00 | ||
| 20260508072502 | 11 | 343 | 4.8 | 9.7 | 0.00 | 0.00 | 0.00 | ||
| 20260508072101 | 11 | 338 | 3.2 | 8.0 | 0.00 | 0.00 | 0.00 | ||
| 20260508071651 | 11 | 338 | 3.2 | 4.8 | 0.00 | 0.00 | 0.00 | ||
| 20260508071250 | 11 | 320 | 4.8 | 12.9 | 0.00 | 0.00 | 0.00 | ||
| 20260508070849 | 11 | 340 | 4.8 | 8.0 | 0.00 | 0.00 | 0.00 | ||
| 20260508070448 | 11 | 333 | 4.8 | 8.0 | 0.00 | 0.00 | 0.00 | ||
| 20260508070046 | 11 | 44 | 4.8 | 12.9 | 0.00 | 0.00 | 0.00 | ||
| 20260508065644 | 12 | 67 | 0.0 | 0.0 | 0.00 | 0.00 | 0.00 | ||
| 20260508065242 | 11 | 67 | 1.6 | 3.2 | 0.00 | 0.00 | 0.00 | ||
| 20260508064440 | 11 | 67 | 1.6 | 4.8 | 0.00 | 0.00 | 0.00 | ||
| 20260508064037 | 11 | 67 | 4.8 | 8.0 | 0.00 | 0.00 | 0.00 | ||
| 20260508063629 | 11 | 67 | 4.8 | 6.4 | 0.00 | 0.00 | 0.00 | ||
| 20260508063227 | 11 | 67 | 4.8 | 8.0 | 0.00 | 0.00 | 0.00 | ||
| 20260508062826 | 11 | 67 | 4.8 | 8.0 | 0.00 | 0.00 | 0.00 | ||
| 20260508062424 | 11 | 67 | 4.8 | 8.0 | 0.00 | 0.00 | 0.00 | ||
| 20260508062022 | 12 | 67 | 3.2 | 4.8 | 0.00 | 0.00 | 0.00 | ||
| 20260508061621 | 11 | 67 | 0.0 | 3.2 | 0.00 | 0.00 | 0.00 | ||
| 20260508061219 | 11 | 67 | 0.0 | 0.0 | 0.00 | 0.00 | 0.00 | ||
| 20260508060817 | 11 | 67 | 3.2 | 4.8 | 0.00 | 0.00 | 0.00 | ||
| 20260508060416 | 11 | 67 | 3.2 | 6.4 | 0.00 | 0.00 | 0.00 | ||
| 20260508060014 | 11 | 90 | 4.8 | 8.0 | 0.00 | 0.00 | 0.00 | ||
| 20260508055606 | 11 | 90 | 3.2 | 4.8 | 0.00 | 0.00 | 0.00 | ||
| 20260508055204 | 11 | 90 | 3.2 | 4.8 | 0.00 | 0.00 | 0.00 | ||
| 20260508054802 | 11 | 90 | 3.2 | 6.4 | 0.00 | 0.00 | 0.00 | ||
| 20260508054401 | 11 | 90 | 4.8 | 8.0 | 0.00 | 0.00 | 0.00 | ||
| 20260508053959 | 10 | 92 | 6.4 | 8.0 | 0.00 | 0.00 | 0.00 | ||
| 20260508053558 | 11 | 111 | 1.6 | 3.2 | 0.00 | 0.00 | 0.00 | ||
| 20260508053155 | 11 | 111 | 0.0 | 1.6 | 0.00 | 0.00 | 0.00 | ||
| 20260508052754 | 11 | 111 | 0.0 | 3.2 | 0.00 | 0.00 | 0.00 | ||
| 20260508052353 | 11 | 111 | 1.6 | 4.8 | 0.00 | 0.00 | 0.00 | ||
| 20260508051952 | 11 | 98 | 3.2 | 6.4 | 0.00 | 0.00 | 0.00 | ||
| 20260508051542 | 11 | 67 | 4.8 | 8.0 | 0.00 | 0.00 | 0.00 | ||
| 20260508051141 | 10 | 66 | 4.8 | 9.7 | 0.00 | 0.00 | 0.00 | ||
| 20260508050740 | 10 | 11 | 4.8 | 8.0 | 0.00 | 0.00 | 0.00 | ||
| 20260508050339 | 10 | 30 | 3.2 | 8.0 | 0.00 | 0.00 | 0.00 | ||
| 20260508045936 | 10 | 63 | 6.4 | 12.9 | 0.00 | 0.00 | 0.00 | ||
| 20260508045535 | 10 | 345 | 4.8 | 8.0 | 0.00 | 0.00 | 0.00 | ||
| 20260508045133 | 10 | 310 | 6.4 | 14.5 | 0.00 | 0.00 | 0.00 | ||
| 20260508044732 | 10 | 326 | 6.4 | 11.3 | 0.00 | 0.00 | 0.00 | ||
| 20260508044331 | 10 | 312 | 6.4 | 12.9 | 0.00 | 0.00 | 0.00 | ||
| 20260508043928 | 10 | 317 | 4.8 | 6.4 | 0.00 | 0.00 | 0.00 | ||
| 20260508043520 | 10 | 314 | 4.8 | 8.0 | 0.00 | 0.00 | 0.00 | ||
| 20260508043118 | 10 | 295 | 8.0 | 12.9 | 0.00 | 0.00 | 0.00 | ||
| 20260508042315 | 11 | 306 | 8.0 | 12.9 | 0.00 | 0.00 | 0.00 | ||
| 20260508041913 | 11 | 302 | 6.4 | 14.5 | 0.00 | 0.00 | 0.00 | ||
| 20260508041512 | 10 | 295 | 6.4 | 11.3 | 0.00 | 0.00 | 0.00 | ||
| 20260508041110 | 10 | 310 | 6.4 | 11.3 | 0.00 | 0.00 | 0.00 | ||
| 20260508040708 | 10 | 303 | 6.4 | 12.9 | 0.00 | 0.00 | 0.00 | ||
| 20260508040307 | 10 | 305 | 9.7 | 14.5 | 0.00 | 0.00 | 0.00 | ||
| 20260508035905 | 10 | 299 | 6.4 | 11.3 | 0.00 | 0.00 | 0.00 | ||
| 20260508035457 | 10 | 309 | 8.0 | 12.9 | 0.00 | 0.00 | 0.00 | ||
| 20260508035054 | 11 | 318 | 6.4 | 12.9 | 0.00 | 0.00 | 0.00 | ||
| 20260508034653 | 10 | 295 | 9.7 | 12.9 | 0.00 | 0.00 | 0.00 | ||
| 20260508034252 | 11 | 305 | 8.0 | 14.5 | 0.00 | 0.00 | 0.00 | ||
| 20260508033850 | 11 | 311 | 8.0 | 14.5 | 0.00 | 0.00 | 0.00 | ||
| 20260508033450 | 11 | 301 | 4.8 | 8.0 | 0.00 | 0.00 | 0.00 | ||
| 20260508033046 | 11 | 298 | 8.0 | 11.3 | 0.00 | 0.00 | 0.00 | ||
| 20260508032645 | 11 | 295 | 4.8 | 8.0 | 0.00 | 0.00 | 0.00 | ||
| 20260508032245 | 11 | 307 | 4.8 | 9.7 | 0.00 | 0.00 | 0.00 | ||
| 20260508031843 | 11 | 292 | 6.4 | 11.3 | 0.00 | 0.00 | 0.00 | ||
| 20260508031434 | 11 | 297 | 8.0 | 16.1 | 0.00 | 0.00 | 0.00 | ||
| 20260508031032 | 11 | 292 | 4.8 | 8.0 | 0.00 | 0.00 | 0.00 | ||
| 20260508030631 | 11 | 304 | 6.4 | 9.7 | 0.00 | 0.00 | 0.00 | ||
| 20260508030230 | 11 | 302 | 4.8 | 9.7 | 0.00 | 0.00 | 0.00 | ||
| 20260508025827 | 11 | 292 | 6.4 | 11.3 | 0.00 | 0.00 | 0.00 | ||
| 20260508025426 | 11 | 292 | 4.8 | 6.4 | 0.00 | 0.00 | 0.00 | ||
| 20260508024622 | 11 | 292 | 4.8 | 9.7 | 0.00 | 0.00 | 0.00 | ||
| 20260508024220 | 11 | 292 | 4.8 | 8.0 | 0.00 | 0.00 | 0.00 | ||
| 20260508023818 | 11 | 292 | 4.8 | 8.0 | 0.00 | 0.00 | 0.00 | ||
| 20260508023410 | 11 | 292 | 6.4 | 11.3 | 0.00 | 0.00 | 0.00 | ||
| 20260508023008 | 11 | 292 | 4.8 | 6.4 | 0.00 | 0.00 | 0.00 | ||
| 20260508022607 | 11 | 289 | 3.2 | 6.4 | 0.00 | 0.00 | 0.00 | ||
| 20260508022205 | 11 | 292 | 4.8 | 6.4 | 0.00 | 0.00 | 0.00 | ||
| 20260508021803 | 11 | 292 | 0.0 | 3.2 | 0.00 | 0.00 | 0.00 | ||
| 20260508021402 | 11 | 292 | 0.0 | 3.2 | 0.00 | 0.00 | 0.00 | ||
| 20260508021000 | 11 | 292 | 0.0 | 1.6 | 0.00 | 0.00 | 0.00 | ||
| 20260508020558 | 11 | 292 | 1.6 | 3.2 | 0.00 | 0.00 | 0.00 | ||
| 20260508020157 | 11 | 292 | 3.2 | 4.8 | 0.00 | 0.00 | 0.00 | ||
| 20260508015755 | 11 | 292 | 0.0 | 3.2 | 0.00 | 0.00 | 0.00 | ||
| 20260508015347 | 11 | 292 | 1.6 | 4.8 | 0.00 | 0.00 | 0.00 | ||
| 20260508014944 | 12 | 292 | 1.6 | 6.4 | 0.00 | 0.00 | 0.00 | ||
| 20260508014543 | 11 | 292 | 4.8 | 8.0 | 0.00 | 0.00 | 0.00 | ||
| 20260508014142 | 12 | 311 | 3.2 | 4.8 | 0.00 | 0.00 | 0.00 | ||
| 20260508013740 | 12 | 315 | 1.6 | 3.2 | 0.00 | 0.00 | 0.00 | ||
| 20260508013338 | 12 | 315 | 0.0 | 3.2 | 0.00 | 0.00 | 0.00 | ||
| 20260508012936 | 11 | 315 | 0.0 | 0.0 | 0.00 | 0.00 | 0.00 | ||
| 20260508012535 | 12 | 315 | 0.0 | 0.0 | 0.00 | 0.00 | 0.00 | ||
| 20260508012134 | 11 | 315 | 0.0 | 0.0 | 0.00 | 0.00 | 0.00 | ||
| 20260508011732 | 11 | 315 | 0.0 | 1.6 | 0.00 | 0.00 | 0.00 | ||
| 20260508011323 | 11 | 315 | 0.0 | 3.2 | 0.00 | 0.00 | 0.00 | ||
| 20260508010921 | 11 | 315 | 1.6 | 3.2 | 0.00 | 0.00 | 0.00 | ||
| 20260508010520 | 11 | 315 | 1.6 | 4.8 | 0.00 | 0.00 | 0.00 | ||
| 20260508010119 | 11 | 313 | 6.4 | 11.3 | 0.00 | 0.00 | 0.00 | ||
| 20260508005716 | 11 | 302 | 6.4 | 14.5 | 0.00 | 0.00 | 0.00 | ||
| 20260508005315 | 11 | 292 | 3.2 | 8.0 | 0.00 | 0.00 | 0.00 | ||
| 20260508004913 | 11 | 313 | 4.8 | 12.9 | 0.00 | 0.00 | 0.00 | ||
| 20260508004513 | 11 | 308 | 6.4 | 12.9 | 0.00 | 0.00 | 0.00 | ||
| 20260508004110 | 11 | 321 | 4.8 | 9.7 | 0.00 | 0.00 | 0.00 | ||
| 20260508003708 | 11 | 303 | 4.8 | 9.7 | 0.00 | 0.00 | 0.00 | ||
| 20260508003300 | 11 | 315 | 4.8 | 9.7 | 0.00 | 0.00 | 0.00 | ||
| 20260508002858 | 11 | 296 | 6.4 | 9.7 | 0.00 | 0.00 | 0.00 | ||
| 20260508002456 | 11 | 308 | 4.8 | 8.0 | 0.00 | 0.00 | 0.00 | ||
| 20260508002055 | 11 | 292 | 4.8 | 6.4 | 0.00 | 0.00 | 0.00 | ||
| 20260508001653 | 11 | 292 | 4.8 | 8.0 | 0.00 | 0.00 | 0.00 | ||
| 20260508001252 | 12 | 292 | 0.0 | 3.2 | 0.00 | 0.00 | 0.00 | ||
| 20260508000850 | 12 | 292 | 1.6 | 6.4 | 0.00 | 0.00 | 0.00 | ||
| 20260508000450 | 11 | 292 | 4.8 | 8.0 | 0.00 | 0.00 | 0.00 | ||
| 20260508000047 | 12 | 311 | 3.2 | 6.4 | 0.00 | 0.00 | 0.00 | ||
| 20260507235646 | 11 | 293 | 4.8 | 8.0 | 0.00 | 0.00 | 0.00 | ||
| 20260507235238 | 11 | 307 | 4.8 | 11.3 | 0.00 | 0.00 | 0.00 | ||
| 20260507234835 | 12 | 297 | 4.8 | 12.9 | 0.00 | 0.00 | 0.00 | ||
| 20260507234434 | 12 | 296 | 8.0 | 11.3 | 0.00 | 0.00 | 0.00 | ||
| 20260507234033 | 12 | 297 | 8.0 | 14.5 | 0.00 | 0.00 | 0.00 | ||
| 20260507233631 | 12 | 293 | 8.0 | 16.1 | 0.00 | 0.00 | 0.00 | ||
| 20260507233229 | 12 | 292 | 6.4 | 12.9 | 0.00 | 0.00 | 0.00 | ||
| 20260507232827 | 12 | 292 | 6.4 | 11.3 | 0.00 | 0.00 | 0.00 | ||
| 20260507232426 | 12 | 292 | 9.7 | 12.9 | 0.00 | 0.00 | 0.00 | ||
| 20260507232025 | 12 | 292 | 6.4 | 9.7 | 0.00 | 0.00 | 0.00 | ||
| 20260507231622 | 12 | 284 | 6.4 | 11.3 | 0.00 | 0.00 | 0.00 | ||
| 20260507231214 | 12 | 292 | 6.4 | 9.7 | 0.00 | 0.00 | 0.00 | ||
| 20260507230812 | 12 | 304 | 4.8 | 9.7 | 0.00 | 0.00 | 0.00 | ||
| 20260507230411 | 12 | 338 | 3.2 | 6.4 | 0.00 | 0.00 | 0.00 | ||
| 20260507230010 | 12 | 338 | 4.8 | 6.4 | 0.00 | 0.00 | 0.00 | ||
| 20260507225607 | 12 | 338 | 0.0 | 3.2 | 0.00 | 0.00 | 0.00 | ||
| 20260507225206 | 12 | 338 | 0.0 | 0.0 | 0.00 | 0.00 | 0.00 | ||
| 20260507224804 | 12 | 338 | 1.6 | 3.2 | 0.00 | 0.00 | 0.00 | ||
| 20260507224403 | 12 | 338 | 3.2 | 4.8 | 0.00 | 0.00 | 0.00 | ||
| 20260507224001 | 12 | 338 | 3.2 | 6.4 | 0.00 | 0.00 | 0.00 | ||
| 20260507223559 | 12 | 338 | 4.8 | 8.0 | 0.00 | 0.00 | 0.00 | ||
| 20260507223151 | 12 | 315 | 3.2 | 6.4 | 0.00 | 0.00 | 0.00 |